Date String (YYYY-MM-DD hh:mm:ss) UTC,Instrument flags,Ambient pressure (hPa),Sample flow (lpm),Bypass flow (lpm),Sample temperature (°C),Ambient temperature (°C),ASC tube jacket temperature (°C),LED temperature (°C),Box temperature (°C),Sample RH (%),Span deviation,Mass concentration (μg/m³),Mass concentration (μg/m³),Mass concentration (μg/m³)
DateTimeUTC,F1_M11,P_M11,Q1_M11,Q2_M11,T1_M11,T2_M11,T3_M11,T4_M11,T5_M11,U1_M11,ZSPAN_M11,X0_M11,X2_M11,X1_M11
2022-09-07 06:00:00,,0832.3,5.02,0.00,29.7,28.7,00.0,38.4,31.6,14.2,0003.3,0034.84,0023.64,0022.13
2022-09-07 06:01:00,,0832.3,4.99,0.00,29.7,28.8,00.0,38.4,31.7,14.2,0003.5,0033.96,0023.61,0022.11
2022-09-07 06:02:00,,0832.4,5.02,0.00,29.8,28.9,00.0,38.4,31.7,14.2,0003.6,0034.71,0023.63,0022.16
2022-09-07 06:03:00,,0832.3,4.99,0.00,29.8,28.9,00.0,38.5,31.8,14.2,0003.4,0034.54,0023.68,0022.22
2022-09-07 06:04:00,,0832.3,5.00,0.00,29.9,28.4,00.0,38.5,31.7,14.2,0003.4,0035.21,0023.72,0022.25
2022-09-07 06:05:00,,0832.3,5.00,0.00,29.8,27.1,00.0,38.5,31.6,14.1,0003.0,0035.45,0023.64,0022.25
2022-09-07 06:06:00,,0832.3,5.00,0.00,29.8,27.0,00.0,38.4,31.6,14.1,0003.1,0035.48,0023.66,0022.27
2022-09-07 06:07:00,,0832.3,5.00,0.00,29.7,27.1,00.0,38.4,31.4,14.1,0003.0,0035.36,0023.66,0022.32
2022-09-07 06:08:00,,0832.3,4.99,0.00,29.7,27.4,00.0,38.4,31.4,14.0,0002.6,0035.00,0023.68,0022.35
2022-09-07 06:09:00,,0832.4,5.00,0.00,29.7,27.7,00.0,38.4,31.4,14.1,0002.2,0034.69,0023.71,0022.37
2022-09-07 06:10:00,,0832.3,5.00,0.00,29.7,28.0,00.0,38.4,31.5,14.2,0002.0,0035.08,0023.82,0022.36
2022-09-07 06:11:00,,0832.3,5.01,0.00,29.7,28.2,00.0,38.4,31.5,14.1,0001.9,0035.41,0023.90,0022.36
2022-09-07 06:12:00,,0832.3,4.99,0.00,29.7,28.4,00.0,38.4,31.6,14.1,0001.5,0036.39,0023.87,0022.35
2022-09-07 06:13:00,,0832.3,5.02,0.00,29.7,28.5,00.0,38.4,31.6,14.0,0001.7,0035.52,0023.79,0022.31
2022-09-07 06:14:00,,0832.4,4.98,0.00,29.8,28.7,00.0,38.4,31.7,14.0,0002.0,0035.41,0023.76,0022.30
2022-09-07 06:15:00,,0832.4,5.01,0.00,29.8,28.8,00.0,38.5,31.7,13.9,0002.1,0034.73,0023.71,0022.29
2022-09-07 06:16:00,,0832.4,5.00,0.00,29.8,28.8,00.0,38.5,31.7,14.0,0002.2,0034.16,0023.80,0022.32
2022-09-07 06:17:00,,0832.5,5.01,0.00,29.9,28.9,00.0,38.5,31.8,14.0,0002.0,0034.34,0023.81,0022.28
2022-09-07 06:18:00,,0832.5,4.98,0.00,29.9,28.2,00.0,38.5,31.8,14.1,0001.7,0034.89,0023.82,0022.23
2022-09-07 06:19:00,,0832.5,5.00,0.00,29.9,27.1,00.0,38.5,31.7,14.2,0002.0,0035.58,0023.85,0022.22
2022-09-07 06:20:00,,0832.5,5.00,0.00,29.8,27.1,00.0,38.5,31.6,14.2,0002.3,0036.22,0023.82,0022.20
2022-09-07 06:21:00,,0832.6,5.01,0.00,29.8,27.3,00.0,38.5,31.5,14.3,0002.5,0035.77,0023.75,0022.19
2022-09-07 06:22:00,,0832.6,5.00,0.00,29.7,27.6,00.0,38.5,31.5,14.5,0002.4,0035.19,0023.66,0022.17
2022-09-07 06:23:00,,0832.6,5.01,0.00,29.7,27.9,00.0,38.5,31.5,14.7,0002.5,0034.77,0023.71,0022.19
2022-09-07 06:24:00,,0832.6,5.01,0.00,29.7,28.1,00.0,38.5,31.6,14.9,0002.6,0034.63,0023.75,0022.23
2022-09-07 06:25:00,,0832.6,4.98,0.00,29.8,28.3,00.0,38.5,31.6,15.0,0002.8,0034.23,0023.76,0022.27
2022-09-07 06:26:00,,0832.6,5.02,0.00,29.8,28.5,00.0,38.5,31.7,14.8,0002.7,0034.58,0023.80,0022.31
2022-09-07 06:27:00,,0832.6,4.99,0.00,29.8,28.6,00.0,38.5,31.7,14.9,0002.6,0035.83,0023.78,0022.32
2022-09-07 06:28:00,,0832.6,5.02,0.00,29.8,28.7,00.0,38.5,31.7,14.8,0002.8,0035.43,0023.80,0022.36
2022-09-07 06:29:00,,0832.6,4.98,0.00,29.9,28.8,00.0,38.5,31.7,14.7,0002.9,0034.85,0023.81,0022.40
2022-09-07 06:30:00,,0832.6,5.02,0.00,29.9,28.9,00.0,38.6,31.8,14.6,0002.5,0035.07,0023.75,0022.40
2022-09-07 06:31:00,,0832.6,4.98,0.00,29.9,29.0,00.0,38.6,31.9,14.5,0002.3,0035.97,0023.81,0022.44
2022-09-07 06:32:00,,0832.6,5.02,0.00,30.0,29.0,00.0,38.6,31.9,14.4,0002.3,0036.68,0023.94,0022.49
2022-09-07 06:33:00,,0832.6,4.99,0.00,30.0,28.2,00.0,38.6,31.9,14.3,0002.4,0037.30,0024.02,0022.53
2022-09-07 06:34:00,,0832.6,5.01,0.00,29.9,26.8,00.0,38.6,31.6,14.3,0002.0,0036.80,0024.01,0022.52
2022-09-07 06:35:00,,0832.6,5.00,0.00,29.9,26.4,00.0,38.5,31.6,14.3,0001.8,0037.21,0024.04,0022.50
2022-09-07 06:36:00,,0832.6,4.99,0.00,29.8,26.6,00.0,38.5,31.5,14.4,0001.8,0037.93,0024.05,0022.47
2022-09-07 06:37:00,,0832.6,5.00,0.00,29.7,26.9,00.0,38.4,31.4,14.5,0002.0,0037.51,0024.03,0022.44
2022-09-07 06:38:00,,0832.6,5.01,0.00,29.7,27.3,00.0,38.4,31.4,14.6,0002.3,0036.69,0024.00,0022.42
2022-09-07 06:39:00,,0832.7,5.00,0.00,29.7,27.6,00.0,38.4,31.4,14.6,0002.1,0037.17,0023.99,0022.40
2022-09-07 06:40:00,,0832.7,5.01,0.00,29.7,27.9,00.0,38.4,31.5,14.6,0002.0,0037.60,0023.95,0022.36
2022-09-07 06:41:00,,0832.7,4.98,0.00,29.7,28.1,00.0,38.4,31.5,14.6,0002.2,0036.71,0023.92,0022.34
2022-09-07 06:42:00,,0832.7,5.01,0.00,29.7,28.3,00.0,38.4,31.5,14.6,0002.2,0035.38,0023.91,0022.30
2022-09-07 06:43:00,,0832.7,4.99,0.00,29.7,28.4,00.0,38.4,31.6,14.5,0002.2,0034.88,0023.82,0022.24
2022-09-07 06:44:00,,0832.6,5.01,0.00,29.7,28.6,00.0,38.5,31.6,14.4,0002.0,0034.10,0023.76,0022.19
2022-09-07 06:45:00,,0832.7,4.99,0.00,29.8,28.7,00.0,38.5,31.7,14.4,0002.3,0033.98,0023.67,0022.17
2022-09-07 06:46:00,,0832.7,5.01,0.00,29.8,28.7,00.0,38.5,31.7,14.3,0002.6,0033.15,0023.59,0022.16
2022-09-07 06:47:00,,0832.7,4.99,0.00,29.8,28.8,00.0,38.5,31.8,14.3,0002.1,0032.40,0023.55,0022.12
2022-09-07 06:48:00,,0832.6,5.00,0.00,29.9,28.9,00.0,38.5,31.8,14.3,0002.2,0032.46,0023.52,0022.09
2022-09-07 06:49:00,,0832.6,5.00,0.00,29.9,29.0,00.0,38.6,31.8,14.3,0002.3,0032.23,0023.53,0022.06
2022-09-07 06:50:00,,0832.7,5.00,0.00,29.9,29.0,00.0,38.6,31.9,14.2,0002.3,0032.14,0023.56,0022.06
2022-09-07 06:51:00,,0832.6,5.00,0.00,30.0,28.4,00.0,38.6,31.8,14.1,0002.3,0032.50,0023.59,0022.06
2022-09-07 06:52:00,,0832.6,5.01,0.00,29.9,26.9,00.0,38.6,31.6,14.2,0002.3,0032.29,0023.62,0022.05
2022-09-07 06:53:00,,0832.7,5.00,0.00,29.9,26.3,00.0,38.5,31.5,14.2,0002.0,0032.30,0023.62,0022.03
2022-09-07 06:54:00,,0832.7,4.99,0.00,29.8,26.5,00.0,38.5,31.4,14.3,0002.0,0032.41,0023.62,0022.02
2022-09-07 06:55:00,,0832.6,4.99,0.00,29.7,26.8,00.0,38.5,31.4,14.3,0002.6,0032.56,0023.67,0022.05
2022-09-07 06:56:00,,0832.6,5.02,0.00,29.7,27.2,00.0,38.4,31.4,14.3,0002.7,0032.37,0023.77,0022.05
2022-09-07 06:57:00,,0832.7,5.00,0.00,29.7,27.6,00.0,38.4,31.4,14.4,0002.5,0032.86,0023.80,0022.04
2022-09-07 06:58:00,,0832.7,5.01,0.00,29.7,27.8,00.0,38.4,31.4,14.3,0002.9,0033.94,0023.76,0022.04
2022-09-07 06:59:00,,0832.7,5.01,0.00,29.7,28.1,00.0,38.4,31.5,14.3,0002.7,0033.78,0023.72,0022.02
